Wind_Speed
15 15 15 16 17 17 17 18 18 19 20 21 22 22 23 25 26 26 27 27 27 28 28 28 29 28 28 28 28 28 28 29 28 29 28 28 28 27 28 28 28 27 28
14 14 15 15 16 17 18 19 19 20 21 22 22 23 24 25 26 27 27 28 29 29 28 29 29 29 29 29 30 29 29 29 29 29 29 28 28 28 28 28 28 28 29
13 14 14 15 17 18 19 20 20 21 22 22 23 24 25 25 26 27 27 28 29 29 29 29 29 29 29 29 30 30 30 30 30 30 30 30 28 28 28 28 28 28 29
14 14 15 17 18 18 19 20 21 22 22 23 23 24 25 26 26 27 27 27 28 29 29 29 29 29 29 29 29 29 30 30 30 30 30 31 30 29 28 28 28 28 29
14 14 15 17 17 18 19 20 21 22 23 24 24 25 26 26 26 27 27 27 28 28 29 29 28 28 29 29 28 29 29 29 29 30 30 31 31 31 31 31 30 29 29
14 15 16 17 18 20 20 21 22 23 24 25 25 26 27 27 28 28 27 27 27 27 27 27 27 28 28 28 28 28 29 29 29 29 30 31 31 31 32 32 31 31 30
14 15 16 17 18 20 21 22 23 23 25 25 26 27 27 27 28 28 27 27 27 26 26 26 27 27 28 28 28 29 29 29 29 29 29 29 30 31 31 31 31 32 31
15 16 16 18 18 20 21 22 24 25 25 26 27 27 27 27 27 27 27 27 27 27 26 27 27 27 28 28 28 28 28 28 28 28 28 28 28 29 30 30 31 31 32
15 16 17 19 19 21 22 23 24 25 26 26 26 27 27 27 28 28 28 28 28 28 28 27 28 28 28 28 28 28 28 28 28 28 28 27 28 28 29 30 30 31 31
15 16 18 19 21 22 22 23 24 25 26 26 26 27 27 28 28 28 28 28 28 27 27 27 27 27 26 27 27 27 27 28 28 29 29 29 29 29 29 29 30 31 31
17 18 19 20 22 23 23 23 24 25 26 26 26 27 28 28 28 28 27 27 27 26 26 26 26 25 25 26 26 26 27 27 27 28 29 29 28 29 29 29 29 30 30
19 19 20 22 22 23 24 24 25 26 26 26 27 27 27 26 26 26 26 26 26 26 25 25 25 25 25 25 25 26 26 26 27 27 27 27 28 28 29 29 29 29 29
21 22 22 22 23 24 25 25 25 26 26 26 26 26 26 25 25 25 25 25 25 25 25 25 25 25 25 25 25 25 25 26 25 25 26 26 26 27 27 27 28 28 28
21 21 22 23 23 25 25 25 26 26 26 26 26 25 25 25 24 24 24 23 23 24 24 24 24 24 24 24 24 24 24 23 23 23 23 23 23 24 26 26 26 26 27
21 22 23 24 24 25 25 25 26 26 26 26 25 25 24 24 23 22 22 22 22 23 23 23 23 23 23 23 23 23 22 21 21 20 20 21 21 22 23 24 24 24 24
22 22 23 23 24 25 25 26 26 26 25 25 24 23 22 21 21 20 20 20 20 21 21 22 22 21 21 21 21 20 19 19 18 18 18 18 19 20 20 20 20 21 21
20 21 22 23 24 25 25 25 25 24 23 22 21 20 20 19 18 18 18 18 18 19 20 20 20 20 20 19 18 18 17 17 16 16 16 16 16 16 16 16 17 17 17
20 21 22 23 23 23 23 22 22 21 21 20 19 18 18 17 16 16 16 16 16 17 17 17 18 17 16 16 15 15 15 14 14 13 13 12 12 13 13 13 13 13 14
20 20 20 20 21 20 19 19 18 18 18 17 16 16 15 15 14 14 14 15 15 14 15 14 14 14 13 12 11 12 12 11 10 10 10 10 10 10 10 10 10 11 11
19 19 18 18 17 17 17 16 16 16 15 14 14 14 13 13 12 12 13 13 13 12 12 11 11 10 9 8 7 8 7 7 7 7 6 6 7 7 7 6 7 7 7
17 17 17 16 16 15 15 15 14 14 13 13 13 12 12 11 11 11 10 10 9 8 8 7 7 6 6 4 3 3 4 3 3 3 3 2 3 3 4 5 5 5 5
15 15 15 15 14 14 13 13 13 12 12 12 11 11 10 10 9 9 8 8 6 5 5 5 4 4 3 2 2 1 1 2 1 2 2 3 4 5 5 5 4 3 3
14 14 15 14 13 12 11 11 11 11 10 10 10 9 9 8 8 7 7 6 5 5 5 4 4 3 3 4 3 4 5 5 5 5 6 7 8 7 6 6 5 4 4
13 13 12 12 11 10 10 10 10 9 9 9 9 9 8 8 8 8 7 7 7 7 7 7 7 7 7 7 7 8 8 8 8 9 9 9 9 9 9 8 7 6 6
11 11 10 10 10 10 9 9 9 9 9 9 9 9 9 10 10 10 10 10 10 10 10 9 10 10 10 10 10 10 10 10 11 10 11 10 10 11 10 9 9 9 9
10 10 9 10 10 10 10 9 9 9 9 9 10 10 11 11 12 12 12 12 12 12 11 11 12 12 12 12 12 12 12 11 12 12 11 11 12 12 12 11 10 10 9
Wind_Direction
284 281 280 283 284 287 290 290 289 289 289 288 286 283 281 280 279 278 278 276 275 276 276 275 275 273 272 270 270 268 266 264 263 263 263 263 262 260 259 258 255 253 251
283 284 284 285 286 287 289 289 289 289 289 288 286 285 285 283 281 279 278 278 276 276 276 275 275 273 272 271 269 267 265 264 264 263 263 263 261 259 256 255 255 254 253
282 285 286 286 287 286 287 288 288 287 288 288 287 286 286 285 283 281 279 278 276 276 277 276 277 275 273 271 270 266 264 264 265 264 262 261 260 259 256 253 254 255 253
281 287 287 286 288 286 287 288 289 287 287 287 287 286 286 285 283 282 281 279 278 278 277 277 278 275 272 271 270 268 266 265 264 263 262 261 261 259 257 255 256 255 253
280 285 287 290 290 289 289 289 291 290 289 289 288 288 287 286 284 283 282 281 280 278 277 277 278 275 272 272 272 270 268 267 266 264 261 261 260 260 259 257 257 257 256
280 285 287 290 292 294 293 293 293 292 291 290 290 289 288 287 286 285 283 281 281 280 278 277 277 276 273 271 270 269 268 267 266 265 262 261 261 260 259 257 257 259 260
279 286 292 291 293 296 295 295 295 294 294 292 291 290 289 288 286 284 283 282 281 281 280 278 277 276 274 273 271 269 269 268 268 266 264 263 262 261 261 258 257 259 260
290 290 294 295 295 296 297 297 296 296 295 293 292 291 290 288 286 285 284 282 282 281 280 279 277 276 275 275 274 271 268 268 267 267 266 265 264 262 261 260 259 260 260
294 295 296 297 297 297 297 297 297 296 296 293 292 291 291 289 287 285 284 284 283 281 279 279 278 277 275 275 273 272 270 268 266 266 267 265 263 262 262 260 260 260 260
299 300 297 298 299 298 299 299 298 297 297 296 294 293 291 289 288 286 284 283 283 282 281 280 279 278 276 274 272 271 270 269 267 266 265 264 262 261 261 260 259 259 258
298 298 298 299 299 300 301 301 300 299 298 296 295 294 293 291 289 287 286 284 283 283 282 280 280 280 279 276 274 273 272 271 270 268 266 264 263 262 261 259 259 258 258
298 296 301 304 302 301 301 302 302 301 299 297 296 296 294 292 290 288 287 285 285 285 283 282 281 280 280 279 278 277 275 273 272 270 268 265 263 261 260 260 258 259 258
303 300 301 304 303 303 302 302 302 302 301 299 297 295 294 293 290 289 288 287 286 285 284 283 282 282 281 281 280 279 276 274 273 271 269 266 263 261 260 260 259 259 259
304 303 304 304 304 304 304 303 303 303 301 299 298 296 294 293 291 289 289 288 287 286 286 285 283 283 282 282 281 280 279 277 274 271 269 267 265 261 259 259 259 258 257
306 305 305 305 304 304 306 305 305 304 302 300 299 296 294 292 291 289 289 288 287 287 287 286 285 285 285 284 283 282 280 277 274 270 268 268 266 264 261 259 258 257 256
306 305 305 305 304 305 307 307 306 305 304 302 300 298 297 295 293 290 289 288 287 287 287 288 288 287 286 285 284 282 280 278 275 271 268 266 265 263 259 258 257 255 254
309 308 307 308 307 307 308 307 307 306 305 303 302 299 298 296 295 292 290 290 290 289 290 290 290 288 285 283 281 279 278 276 274 271 269 265 263 260 257 255 255 253 252
310 310 310 310 309 309 309 309 310 309 308 305 304 302 300 298 296 294 293 293 294 294 292 291 292 292 288 283 280 276 275 275 273 270 268 262 260 258 254 251 250 250 249
312 313 312 312 312 312 312 314 315 315 313 310 308 307 304 303 299 297 296 296 296 296 296 295 297 298 294 289 282 278 277 275 273 269 267 260 259 255 250 246 242 241 241
316 318 318 317 318 318 318 319 319 319 318 317 317 314 310 311 309 306 303 301 300 299 299 300 302 304 302 298 289 284 282 284 279 273 263 258 258 249 235 227 225 227 232
320 323 323 323 323 323 323 322 323 324 324 324 323 320 317 318 317 317 318 315 312 310 312 315 316 314 313 308 302 298 303 307 296 268 232 233 219 190 192 191 196 210 226
324 327 328 328 328 329 329 329 329 329 330 332 331 331 331 333 334 334 337 337 338 337 338 343 341 339 346 354 1 357 16 29 69 111 133 139 145 142 146 150 155 163 177
329 330 331 333 335 337 339 338 339 340 342 344 346 349 352 354 356 359 1 3 7 16 30 36 37 45 50 57 65 77 79 85 92 97 105 112 120 119 117 117 117 115 112
337 339 341 342 344 346 351 353 355 358 2 7 10 15 17 20 23 28 31 38 46 52 59 65 68 68 69 76 82 83 88 93 92 94 96 100 102 107 103 102 101 100 98
350 352 356 1 3 3 3 6 10 15 22 28 32 36 40 46 51 53 56 58 60 63 68 73 76 77 78 80 83 85 87 89 93 93 94 97 100 103 101 97 95 93 90
6 9 12 15 16 17 19 22 25 32 40 47 52 56 59 61 63 63 64 65 66 67 71 78 81 81 82 83 82 85 88 91 93 92 90 94 94 93 92 91 90 85 82
Height
5852 5851 5850 5848 5847 5847 5846 5846 5845 5843 5843 5842 5841 5840 5839 5837 5836 5835 5834 5833 5833 5832 5832 5831 5829 5829 5828 5827 5827 5827 5827 5828 5828 5829 5829 5830 5831 5831 5832 5832 5833 5834 5836
5848 5847 5846 5844 5843 5843 5842 5841 5840 5839 5838 5837 5836 5834 5833 5831 5830 5829 5828 5826 5826 5825 5824 5823 5822 5821 5821 5820 5820 5819 5820 5820 5821 5821 5822 5823 5824 5824 5825 5826 5826 5827 5829
5845 5844 5842 5841 5840 5839 5838 5837 5835 5834 5832 5831 5830 5828 5827 5825 5824 5822 5821 5820 5819 5818 5817 5816 5815 5814 5813 5812 5812 5812 5812 5813 5813 5814 5815 5816 5816 5817 5819 5819 5820 5821 5822
5840 5840 5839 5838 5837 5835 5834 5832 5830 5828 5827 5825 5824 5822 5820 5819 5817 5815 5814 5813 5812 5810 5809 5808 5807 5806 5805 5805 5804 5804 5804 5805 5805 5806 5807 5808 5809 5810 5811 5812 5813 5814 5815
5836 5835 5835 5834 5832 5831 5829 5827 5825 5823 5821 5819 5817 5815 5814 5812 5810 5808 5807 5805 5804 5803 5801 5801 5800 5799 5798 5797 5797 5797 5797 5797 5798 5798 5799 5800 5801 5802 5804 5805 5806 5807 5808
5831 5831 5830 5829 5827 5825 5823 5821 5819 5817 5815 5813 5811 5809 5807 5805 5803 5801 5799 5798 5796 5795 5794 5793 5792 5791 5791 5790 5790 5789 5789 5789 5790 5790 5791 5792 5793 5794 5795 5797 5798 5799 5800
5827 5826 5825 5823 5821 5820 5818 5815 5813 5810 5808 5806 5804 5802 5799 5797 5795 5794 5792 5791 5789 5788 5787 5786 5785 5784 5783 5783 5782 5782 5781 5782 5782 5782 5783 5784 5784 5785 5786 5788 5789 5790 5792
5822 5821 5820 5819 5816 5814 5812 5809 5806 5804 5801 5799 5797 5794 5792 5790 5788 5786 5785 5783 5782 5780 5779 5778 5777 5776 5775 5775 5774 5774 5774 5774 5774 5774 5775 5775 5776 5777 5778 5779 5781 5782 5783
5817 5816 5815 5813 5811 5808 5806 5803 5800 5797 5794 5792 5789 5787 5785 5783 5781 5779 5777 5776 5774 5773 5772 5770 5769 5768 5767 5766 5766 5766 5765 5765 5766 5766 5766 5767 5768 5769 5770 5771 5772 5774 5775
5812 5811 5809 5808 5805 5802 5799 5796 5793 5790 5788 5785 5782 5779 5777 5775 5773 5771 5770 5768 5766 5765 5764 5762 5761 5760 5759 5758 5758 5758 5757 5757 5757 5758 5758 5759 5760 5760 5761 5762 5764 5765 5766
5807 5806 5804 5802 5799 5796 5793 5789 5787 5784 5781 5778 5775 5772 5770 5768 5765 5764 5762 5760 5758 5757 5756 5755 5753 5752 5751 5751 5750 5749 5749 5749 5749 5749 5749 5750 5751 5752 5753 5754 5755 5756 5758
5802 5800 5798 5795 5792 5789 5786 5783 5779 5777 5774 5771 5768 5765 5762 5760 5758 5756 5754 5752 5751 5750 5748 5747 5746 5745 5744 5743 5742 5741 5741 5740 5740 5740 5741 5741 5742 5743 5744 5745 5746 5747 5749
5796 5794 5792 5789 5786 5783 5779 5776 5773 5769 5766 5763 5760 5758 5755 5752 5750 5749 5747 5745 5744 5742 5741 5740 5739 5738 5737 5736 5735 5734 5733 5733 5732 5732 5733 5733 5734 5735 5736 5737 5738 5739 5740
5790 5788 5785 5782 5779 5776 5772 5769 5766 5762 5759 5756 5753 5751 5748 5745 5743 5742 5740 5738 5737 5736 5734 5733 5732 5731 5730 5729 5727 5726 5726 5725 5725 5725 5725 5725 5726 5727 5728 5729 5730 5731 5732
5784 5782 5779 5776 5773 5770 5766 5763 5759 5756 5752 5749 5746 5743 5741 5739 5737 5735 5733 5731 5730 5729 5728 5726 5725 5724 5723 5722 5720 5719 5718 5718 5718 5718 5718 5718 5719 5719 5720 5721 5722 5723 5724
5779 5776 5773 5770 5767 5764 5760 5756 5753 5749 5746 5742 5739 5737 5734 5732 5730 5728 5727 5725 5724 5723 5721 5720 5719 5717 5716 5715 5714 5713 5712 5712 5711 5711 5711 5711 5712 5713 5713 5714 5715 5717 5718
5774 5771 5768 5765 5761 5758 5754 5750 5746 5743 5739 5736 5733 5731 5729 5726 5724 5723 5721 5720 5718 5717 5715 5714 5712 5711 5710 5709 5708 5707 5706 5706 5705 5705 5705 5706 5706 5707 5708 5709 5710 5711 5712
5768 5765 5762 5759 5755 5752 5748 5744 5741 5737 5734 5731 5728 5726 5724 5722 5720 5718 5716 5715 5713 5712 5710 5709 5707 5705 5704 5703 5702 5701 5701 5701 5700 5700 5700 5701 5701 5702 5703 5704 5705 5706 5707
5764 5760 5757 5754 5750 5746 5743 5740 5736 5733 5730 5727 5724 5722 5720 5717 5715 5713 5712 5710 5709 5707 5706 5704 5702 5701 5699 5698 5698 5697 5697 5697 5696 5696 5697 5697 5698 5698 5699 5700 5702 5703 5704
5759 5756 5752 5749 5746 5742 5739 5736 5733 5730 5727 5724 5721 5719 5716 5714 5712 5710 5708 5706 5705 5704 5702 5701 5699 5698 5696 5695 5695 5694 5694 5694 5694 5694 5694 5694 5695 5696 5697 5698 5699 5700 5702
5755 5752 5749 5745 5742 5739 5736 5733 5730 5727 5724 5721 5718 5716 5714 5711 5709 5707 5705 5704 5702 5701 5699 5698 5697 5696 5695 5694 5693 5693 5693 5693 5692 5692 5692 5693 5694 5694 5695 5697 5698 5699 5700
5752 5749 5746 5742 5739 5736 5733 5730 5727 5725 5722 5719 5717 5714 5712 5709 5707 5705 5704 5702 5700 5699 5698 5697 5696 5695 5694 5693 5693 5693 5692 5692 5692 5692 5692 5693 5694 5695 5695 5697 5697 5699 5699
5749 5746 5743 5740 5737 5734 5731 5728 5726 5723 5720 5718 5715 5713 5711 5708 5707 5705 5703 5701 5700 5698 5697 5696 5696 5695 5694 5694 5693 5693 5693 5693 5693 5693 5693 5694 5695 5695 5696 5697 5698 5699 5700
5747 5744 5741 5738 5735 5732 5730 5727 5725 5722 5719 5717 5715 5713 5711 5709 5707 5705 5703 5702 5701 5699 5698 5698 5697 5696 5696 5695 5695 5695 5695 5695 5695 5695 5696 5696 5696 5697 5698 5699 5700 5700 5701
5745 5742 5740 5737 5734 5732 5729 5727 5724 5722 5720 5718 5716 5714 5712 5710 5708 5707 5705 5704 5702 5701 5700 5700 5699 5698 5698 5697 5697 5697 5697 5698 5698 5699 5699 5699 5700 5700 5700 5701 5702 5702 5703
5745 5742 5739 5737 5734 5732 5730 5727 5725 5723 5721 5719 5717 5716 5714 5713 5711 5710 5708 5707 5705 5704 5703 5702 5702 5701 5701 5700 5700 5701 5701 5701 5701 5702 5702 5702 5702 5703 5704 5704 5705 5705 5705